Location: Condor
(52.3263°N, 114.5541°W)
Time: 20:21:05
(UTC+00:00)

Oscar 19 - Pass Details

Date: 07 December 2023
Orbit: 771 x 789 km, 98.9° (Epoch: 04 March)

Event Time Altitude Azimuth Distance (km) Brightness Sun altitude
Rises 10:55:09 0° 29° (NNE) 3,276 14.4 -41.0°
Reaches altitude 10° 10:58:40 10° 54° (NE) 2,345 13.7 -40.5°
Maximum altitude 11:01:21 14° 86° (E) 2,065 13.4 -40.1°
Drops below altitude 10° 11:04:03 10° 118° (ESE) 2,342 13.5 -39.7°
Sets 11:07:32 0° 143° (SE) 3,268 14.1 -39.2°
